Location: ?????
(55.6500°N, 37.2500°E)
Time: 06:16:27
(UTC+00:00)

Cosmos 1842 Rocket - Pass Details

Date: 19 May 2025
Orbit: 600 x 626 km, 82.5° (Epoch: 15 June)

Event Time Altitude Azimuth Distance (km) Brightness Sun altitude
Exits shadow 19:48:48 17° 149° (SSE) 1,550 5.0 -11.5°
Maximum altitude 19:51:37 35° 91° (E) 974 4.4 -11.7°
Drops below altitude 10° 19:55:33 10° 26° (NNE) 1,958 6.7 -11.9°
Sets 19:57:54 0° 18° (NNE) 2,868 7.8 -12.0°
